Location: Fort Worth, Tx
(32.7431°N, 97.3695°W)
Time: 04:53:29
(UTC-05:00)

Altair - Pass Details

Date: 09 October 2023
Orbit: 1501 x 1682 km, 47.2° (Epoch: 06 December)

Event Time Altitude Azimuth Distance (km) Brightness Sun altitude
Rises 00:53:54 0° 218° (SW) 4,647 - -57.1°
Reaches altitude 10° 00:56:55 10° 216° (SW) 3,683 - -57.6°
Maximum altitude 01:06:06 66° 136° (SE) 1,679 - -58.7°
Drops below altitude 10° 01:15:40 10° 57° (ENE) 3,831 - -59.8°
Sets 01:18:52 0° 55° (NE) 4,843 - -60.2°
